User: anonymous   Login
Location: *
(46.0770°N, 1.6444°E)
Time: 03:25:04
(UTC+00:00)
Language:

Cosmos 2074 Rocket - Orbit

View from above orbital plane
View from above orbital plane
View from above satellite
View from above satellite

Ground track
Ground track

The orbit data is extracted from the following two-line orbital elements,

1 20578U 90036B   19322.83449352  .00000064  00000-0  49846-4 0  9990
2 20578  82.9457  63.1465 0013248  28.8204 103.5290 13.76370975485652
Epoch (UTC): 18 November 2019 20:01:40
Eccentricity: 0.0013248
inclination: 82.9457°
perigee height: 967 km
apogee height: 986 km
right ascension of ascending node: 63.1465°
argument of perigee: 28.8204°
revolutions per day: 13.76370975
mean anomaly at epoch: 103.5290°
orbit number at epoch: 48565

The dashed part of the orbit path shows where the satellite is in the earth's shadow,  

DLR